[[{"header":{"parameterUnit":"m.s-1","parameterCategory":1,"la1":30.2991,"la2":30.254,"lo1":-89.0895,"lo2":-89.0444,"dy":0.0017,"dx":0.0017,"nx":28,"ny":28,"refTime":"2025-12-18T03:00:00:Z","depth":0,"parameterNumber":2,"parameterNumberName":"U-component_of_WINDS"},"data":[0,0,0,0,0,0,0,0,0,0,0,0,0,0,0,0,0,0,0,0,0,0,0,0,0,0,0,0,0,0,0,0,0,0,0,0,0,0,0,0,0,0,0,0,0,0,0,0,0,0,0,0,0,0,0,0,0,0,3.2501,3.2502,0,3.2584,3.2585,3.2586,3.2582,3.2581,3.258,3.2579,3.2664,3.2667,3.267,0,0,0,0,0,0,0,0,0,0,0,0,0,3.2342,3.2345,3.2501,3.2502,3.2503,3.2584,3.2585,3.2586,3.2583,3.2581,3.258,3.2579,3.2663,3.2667,3.2671,0,0,0,0,0,0,0,0,0,0,0,0,0,3.2416,3.2346,3.2501,3.2511,3.2513,3.2583,3.2585,3.2586,3.2583,3.2581,3.2579,3.2578,3.2661,3.2666,3.2671,3.2737,0,0,3.2686,3.2688,0,0,0,0,0,0,0,0,3.2412,3.2422,3.2509,3.2511,3.2513,3.2571,3.256,3.2637,3.2583,3.2556,3.2579,3.2577,3.2634,3.2641,3.2661,3.274,3.2744,3.2687,3.269,3.2692,3.2693,0,0,0,0,0,0,0,3.2407,3.2419,3.2534,3.251,3.2512,3.2512,3.2521,3.2574,3.2604,3.2559,3.2559,3.2568,3.2635,3.2656,3.2663,3.2745,3.2687,3.2691,3.2694,3.2696,3.2886,3.2888,0,0,0,0,0,0,3.24,3.2414,3.2531,3.2536,3.2457,3.2517,3.2526,3.2554,3.2603,3.2609,3.257,3.2568,3.2648,3.2657,3.2666,3.2747,3.2692,3.2697,3.2699,3.2884,3.2886,3.2888,0,0,0,0,0,0,3.2396,3.241,3.2528,3.2475,3.249,3.2521,3.2552,3.2557,3.2577,3.2612,3.2617,3.2585,3.2647,3.2659,3.2719,3.275,3.2699,3.2703,3.2881,3.2884,3.2887,3.2909,0,0,0,0,0,0,3.2392,3.2409,3.2433,3.2476,3.2493,3.258,3.2554,3.2559,3.2586,3.2584,3.2628,3.2634,3.2647,3.2712,3.2724,3.2755,3.2707,3.2879,3.2883,3.2886,3.2905,3.2912,3.2918,0,0,0,0,0,3.2386,3.2436,3.2435,3.2449,3.2525,3.2581,3.2591,3.2605,3.2588,3.2614,3.2636,3.2632,3.2744,3.2718,3.2732,3.2765,3.2877,3.2881,3.2886,3.2903,3.2911,3.2918,0,0,0,0,0,0,3.2395,3.2441,3.2441,3.2506,3.254,3.2581,3.2613,3.2613,3.2653,3.2649,3.2665,3.2675,3.2737,3.2757,3.2727,3.2832,3.2809,3.2816,3.2816,3.2824,3.2831,3.2824,3.2711,0,0,0,0,0,3.2405,3.2447,3.2485,3.2539,3.2556,3.2582,3.2607,3.2615,3.2651,3.2665,3.2692,3.2727,3.2771,3.2799,3.2841,3.2909,3.2919,3.2939,3.2945,3.295,3.2956,3.2995,3.3005,3.2903,3.2903,3.2903,0,0,3.2425,3.2455,3.2481,3.2541,3.2569,3.2613,3.2594,3.264,3.2673,3.2672,3.2732,3.2753,3.2794,3.2859,3.2889,3.2878,3.2987,3.2956,3.2959,3.2963,3.3001,3.3011,3.3019,3.2906,3.2906,3.2905,0,0,3.2484,3.2511,3.2559,3.2588,3.263,3.2647,3.2659,3.2701,3.2715,3.2775,3.2776,3.2815,3.2889,3.2919,3.2943,3.3017,3.3015,3.303,3.3062,3.31,3.3108,3.3115,3.3142,3.3152,3.3036,3.3036,3.3036,0,3.2503,3.2569,3.2584,3.2632,3.2659,3.2661,3.2711,3.2738,3.2791,3.281,3.2797,3.2892,3.2919,3.2992,3.301,3.303,3.3045,3.3024,3.3106,3.3113,3.312,3.3146,3.3156,3.3038,3.3038,3.3038,3.3037,0,3.2592,3.2638,3.2672,3.2724,3.2755,3.2804,3.2827,3.2857,3.2863,3.2882,3.2944,3.2978,3.3027,3.3045,3.3051,3.312,3.3112,3.3102,3.3079,3.3131,3.3156,3.3166,3.304,3.304,3.3039,3.3039,0,0,3.2657,3.2719,3.2731,3.2755,3.2803,3.2839,3.2889,3.2937,3.2963,3.3001,3.3043,3.3107,3.31,3.3128,3.3138,3.3171,3.3229,3.3158,3.3159,3.317,3.3308,3.3314,3.3325,3.3228,3.323,3.3232,3.3305,0,3.2721,3.2808,3.2824,3.29,3.2944,3.2948,3.2991,3.3026,3.3046,3.3086,3.3108,3.3153,3.3139,3.3157,3.319,3.3214,3.3256,3.321,3.3268,3.327,3.3258,3.3338,3.3345,3.3412,3.3314,3.3316,3.3317,0,3.2807,3.2847,3.2928,3.2972,3.2991,3.3029,3.3076,3.3115,3.3155,3.3167,3.32,3.3207,3.3259,3.3234,3.3308,3.3276,3.3301,3.3317,3.332,3.3326,3.3296,3.3346,3.3433,3.3443,3.3332,3.3331,3.333,0,3.2847,3.2922,3.298,3.3001,3.3054,3.3081,3.3104,3.3143,3.3172,3.3213,3.3232,3.328,3.3305,3.3342,3.3362,3.3342,3.3435,3.3411,3.3447,3.3447,3.3466,3.3464,3.3558,3.3483,3.3482,3.3482,3.3482,0,3.2916,3.2966,3.2999,3.3035,3.3091,3.311,3.3165,3.3188,3.3223,3.3264,3.3271,3.331,3.3334,3.3376,3.3392,3.3452,3.3463,3.3475,3.3479,3.3474,3.3473,3.3491,3.3486,3.3485,3.3484,3.3484,3.3483,0,3.2969,3.2994,3.3058,3.3103,3.3116,3.3155,3.3194,3.323,3.3251,3.3303,3.3317,3.3349,3.34,3.3424,3.3487,3.3498,3.3565,3.3566,3.3551,3.3553,3.3588,3.3584,3.3696,3.3712,3.3626,3.3627,3.3628,0,3.3012,3.305,3.31,3.3129,3.3153,3.3198,3.3228,3.3249,3.328,3.3331,3.336,3.3412,3.3454,3.3535,3.3565,3.3613,3.3615,3.3651,3.3622,3.3617,3.3616,3.3613,3.3618,3.3656,3.3657,3.3657,3.3658,0,3.3085,3.3096,3.3139,3.3187,3.3223,3.3261,3.3299,3.3322,3.335,3.3385,3.3437,3.347,3.3535,3.3586,3.3637,3.3662,3.3665,3.3667,3.3678,3.3674,3.3664,3.367,3.3566,3.3664,3.3664,3.3663,3.3663,3.3662,3.3135,3.3169,3.321,3.3259,3.329,3.3326,3.3362,3.3388,3.3432,3.3487,3.3497,3.3553,3.3595,3.3664,3.3691,3.3735,3.3727,3.3743,3.3747,3.375,3.3753,3.3658,3.3745,3.3745,3.3745,3.3744,3.3744,0,3.3208,3.3235,3.328,3.3333,3.3372,3.3372,3.3415,3.3447,3.3496,3.3535,3.3577,3.3638,3.3688,3.3723,3.3775,3.3804,3.3807,3.3817,3.3814,3.3821,3.3757,3.3742,3.3814,3.3814,3.3814,3.3814,3.3814,3.3814,3.3251,3.331,3.3326,3.3402,3.3429,3.3484,3.3509,3.3543,3.3574,3.3642,3.3684,3.3706,3.3744,3.3799,3.3846,3.3855,3.3873,3.3884,3.3893,3.3832,3.3825,3.3818,3.3804,3.3888,3.3888,3.3953,3.3953,3.3954]},{"header":{"parameterUnit":"m.s-1","parameterCategory":1,"la1":30.2991,"la2":30.254,"lo1":-89.0895,"lo2":-89.0444,"dy":0.0017,"dx":0.0017,"nx":28,"ny":28,"refTime":"2025-12-18T03:00:00:Z","depth":0,"parameterNumber":3,"parameterNumberName":"V-component_of_WINDS"},"data":[0,0,0,0,0,0,0,0,0,0,0,0,0,0,0,0,0,0,0,0,0,0,0,0,0,0,0,0,0,0,0,0,0,0,0,0,0,0,0,0,0,0,0,0,0,0,0,0,0,0,0,0,0,0,0,0,0,0,-8.0778,-8.0779,0,-8.083,-8.0831,-8.0831,-8.0793,-8.0791,-8.079,-8.0788,-8.0836,-8.0839,-8.0842,0,0,0,0,0,0,0,0,0,0,0,0,0,-8.064,-8.0643,-8.0778,-8.0779,-8.078,-8.083,-8.0831,-8.0831,-8.0793,-8.0791,-8.0789,-8.0787,-8.0835,-8.0839,-8.0842,0,0,0,0,0,0,0,0,0,0,0,0,0,-8.0697,-8.0644,-8.0778,-8.0767,-8.0766,-8.083,-8.0831,-8.0832,-8.0794,-8.0791,-8.0789,-8.0786,-8.0834,-8.0838,-8.0843,-8.0919,0,0,-8.0856,-8.0857,0,0,0,0,0,0,0,0,-8.0694,-8.0702,-8.0768,-8.0768,-8.0767,-8.0803,-8.08,-8.0861,-8.0794,-8.0783,-8.0788,-8.0785,-8.0827,-8.0832,-8.0847,-8.0921,-8.0923,-8.0856,-8.0859,-8.086,-8.0862,0,0,0,0,0,0,0,-8.069,-8.07,-8.0799,-8.0769,-8.0768,-8.0757,-8.0762,-8.0811,-8.0818,-8.0784,-8.0781,-8.0788,-8.0826,-8.0843,-8.0847,-8.0924,-8.0856,-8.086,-8.0862,-8.0864,-8.1061,-8.1063,0,0,0,0,0,0,-8.0688,-8.0697,-8.0797,-8.08,-8.0724,-8.0762,-8.0768,-8.0794,-8.0818,-8.0819,-8.079,-8.0786,-8.0837,-8.0842,-8.0849,-8.0938,-8.086,-8.0864,-8.0867,-8.1058,-8.1061,-8.1064,0,0,0,0,0,0,-8.0685,-8.0697,-8.0795,-8.0748,-8.0759,-8.0767,-8.0796,-8.0796,-8.0812,-8.0823,-8.0823,-8.0806,-8.0835,-8.0843,-8.0901,-8.0939,-8.0866,-8.087,-8.1055,-8.1059,-8.1063,-8.1117,0,0,0,0,0,0,-8.0681,-8.0696,-8.0727,-8.0749,-8.0762,-8.0848,-8.0799,-8.0799,-8.082,-8.0816,-8.0837,-8.0839,-8.0833,-8.0895,-8.0906,-8.0943,-8.0873,-8.1051,-8.1057,-8.1061,-8.1112,-8.1123,-8.1132,0,0,0,0,0,-8.0677,-8.0739,-8.0729,-8.0741,-8.08,-8.0851,-8.0858,-8.0852,-8.0824,-8.0853,-8.0859,-8.0838,-8.0934,-8.0902,-8.0913,-8.0953,-8.1049,-8.1055,-8.1061,-8.1108,-8.1121,-8.1131,0,0,0,0,0,0,-8.072,-8.0742,-8.073,-8.0803,-8.0825,-8.0844,-8.0881,-8.0866,-8.0896,-8.089,-8.088,-8.0885,-8.0946,-8.0956,-8.092,-8.1026,-8.0986,-8.0995,-8.1018,-8.103,-8.104,-8.1035,-8.0877,0,0,0,0,0,-8.0739,-8.0779,-8.0796,-8.0858,-8.087,-8.0874,-8.0895,-8.0889,-8.0911,-8.092,-8.0931,-8.0952,-8.0986,-8.1009,-8.1042,-8.1114,-8.1116,-8.1146,-8.1156,-8.1164,-8.1171,-8.1208,-8.122,-8.1084,-8.1084,-8.1084,0,0,-8.0776,-8.0793,-8.0819,-8.0867,-8.0884,-8.0924,-8.0882,-8.0927,-8.0956,-8.0926,-8.0982,-8.0991,-8.1013,-8.1079,-8.1108,-8.1088,-8.121,-8.1172,-8.1178,-8.1181,-8.1215,-8.1228,-8.124,-8.1088,-8.1087,-8.1087,0,0,-8.0865,-8.0883,-8.0936,-8.0954,-8.098,-8.0982,-8.0995,-8.1016,-8.1021,-8.1078,-8.1056,-8.1089,-8.115,-8.1166,-8.1183,-8.1277,-8.1258,-8.1288,-8.1338,-8.1374,-8.1385,-8.1394,-8.1426,-8.1437,-8.1295,-8.1295,-8.1296,0,-8.0908,-8.0969,-8.0964,-8.1011,-8.1031,-8.1008,-8.106,-8.1077,-8.1112,-8.1126,-8.1104,-8.1179,-8.1192,-8.126,-8.1283,-8.1298,-8.131,-8.1285,-8.1384,-8.1394,-8.1402,-8.1432,-8.1444,-8.1299,-8.1298,-8.1298,-8.1298,0,-8.1019,-8.1062,-8.1102,-8.1137,-8.1162,-8.1211,-8.1212,-8.1238,-8.1229,-8.1233,-8.1289,-8.1305,-8.134,-8.1356,-8.1348,-8.1422,-8.1409,-8.1386,-8.1345,-8.1419,-8.1446,-8.1458,-8.1304,-8.1302,-8.1301,-8.1301,0,0,-8.1136,-8.1169,-8.1183,-8.1198,-8.1226,-8.1258,-8.1305,-8.134,-8.1361,-8.1386,-8.1423,-8.1475,-8.1454,-8.1472,-8.1466,-8.1498,-8.1569,-8.147,-8.1471,-8.1486,-8.1649,-8.1664,-8.1678,-8.1557,-8.1559,-8.1561,-8.1646,0,-8.1224,-8.1308,-8.1305,-8.1382,-8.142,-8.1399,-8.1439,-8.1459,-8.1464,-8.1496,-8.15,-8.1536,-8.1507,-8.1518,-8.1548,-8.1554,-8.1601,-8.1548,-8.1589,-8.1591,-8.1582,-8.1693,-8.1709,-8.1789,-8.1657,-8.1659,-8.166,0,-8.1339,-8.1369,-8.145,-8.147,-8.1486,-8.1523,-8.1554,-8.1586,-8.1607,-8.1608,-8.1629,-8.1617,-8.1662,-8.1622,-8.1683,-8.1647,-8.1664,-8.1669,-8.1672,-8.1674,-8.1628,-8.1695,-8.1814,-8.1825,-8.1678,-8.1676,-8.1675,0,-8.1413,-8.1473,-8.1529,-8.1543,-8.1569,-8.1595,-8.1607,-8.1626,-8.1647,-8.1674,-8.1687,-8.1718,-8.1735,-8.1759,-8.1755,-8.1726,-8.1816,-8.1776,-8.1816,-8.1816,-8.1834,-8.1832,-8.1955,-8.1849,-8.1849,-8.1848,-8.1848,0,-8.151,-8.156,-8.1563,-8.1597,-8.1652,-8.1647,-8.17,-8.1709,-8.1726,-8.176,-8.1744,-8.1775,-8.1769,-8.1801,-8.1798,-8.1847,-8.1855,-8.1856,-8.1854,-8.1856,-8.1856,-8.1865,-8.1859,-8.1852,-8.1851,-8.185,-8.185,0,-8.1601,-8.1606,-8.1665,-8.1685,-8.1691,-8.173,-8.1746,-8.1777,-8.1781,-8.1824,-8.1834,-8.1839,-8.1874,-8.1874,-8.1914,-8.1912,-8.1972,-8.1965,-8.1965,-8.1963,-8.2002,-8.1997,-8.2133,-8.215,-8.2035,-8.2036,-8.2037,0,-8.1663,-8.1701,-8.1725,-8.1747,-8.1761,-8.1797,-8.1818,-8.1815,-8.1837,-8.1864,-8.1892,-8.1926,-8.1953,-8.2011,-8.2017,-8.2048,-8.204,-8.2085,-8.2044,-8.2044,-8.2037,-8.2034,-8.2037,-8.2093,-8.2094,-8.2095,-8.2096,0,-8.177,-8.177,-8.1802,-8.1835,-8.1861,-8.1887,-8.191,-8.1929,-8.1928,-8.1953,-8.1991,-8.2012,-8.2053,-8.2087,-8.2116,-8.2126,-8.211,-8.2109,-8.212,-8.2121,-8.2118,-8.2118,-8.1985,-8.2106,-8.2105,-8.2104,-8.2103,-8.2103,-8.1846,-8.1878,-8.19,-8.1936,-8.1953,-8.1975,-8.2005,-8.2013,-8.2045,-8.2079,-8.2075,-8.2115,-8.2134,-8.2172,-8.2185,-8.2215,-8.2199,-8.2214,-8.2218,-8.2221,-8.2224,-8.2116,-8.2221,-8.222,-8.222,-8.222,-8.222,0,-8.195,-8.1963,-8.1997,-8.203,-8.2058,-8.2043,-8.2068,-8.2091,-8.2128,-8.2148,-8.2175,-8.2217,-8.2249,-8.2258,-8.2289,-8.2312,-8.2305,-8.2319,-8.2316,-8.2318,-8.2238,-8.2225,-8.2324,-8.2324,-8.2324,-8.2324,-8.2324,-8.2324,-8.2007,-8.206,-8.2062,-8.2123,-8.2135,-8.2176,-8.2191,-8.2211,-8.2226,-8.2274,-8.2301,-8.2308,-8.2323,-8.2354,-8.2382,-8.2384,-8.2395,-8.2412,-8.2411,-8.2335,-8.2324,-8.2314,-8.2302,-8.2415,-8.2415,-8.2488,-8.2488,-8.2489]}]]